Flag for Germany Weather past 2 weeks in Zweibrücken, Rhineland-Palatinate, Germany

Now
66 °F

Passing clouds.


Feels Like: 66 °F
Forecast: 57 / 75 °F
Wind: 8 mph from Northeast

Location: Zweibrucken - Rheinland-Pfalz

Current Time: Jul 24, 2014 at 9:13:49 AM

Latest Report: Jul 24, 2014 at 8:20 AM


Visibility: N/A

Pressure: 29.95 "Hg

Humidity: 73%

Dew point: 57 °F

Location of ZweibrückenLocation

Historic Weather in Zweibrücken — Graph

°F

Zweibrücken temperature yesterday

Maximum temperature yesterday: 81 °F (at 3:50 PM)
Minimum temperature yesterday: 64 °F (at 3:50 AM)
Average temperature yesterday: 73 °F

Past Weeks' High & Low Weather Summary

 TemperatureHumidityPressure
High90 °F (Jul 19, 3:20 PM)100% (Jul 9, 7:20 PM)30.21 "Hg (Jul 9, 7:20 PM)
Low52 °F (Jul 9, 7:50 AM)35% (Jul 18, 6:50 PM)29.74 "Hg (Jul 10, 12:50 AM)
Average69 °F73%29.98 "Hg
* Reported Jul 9 7:50 AM — Jul 24 7:20 AM, Zweibrücken, Weather by CustomWeather, © 2014

Note: Actual official high and low records may vary slightly from our data, if they occured in-between our weather recording intervals... More about our weather records

Advertising

Zweibrücken weather history for previous 24 hours

 ConditionsComfort  
Time TempWeatherWind HumidityBarometerVisibility
7:20 AM
Jul 24
64 °FClear.8 mph73%29.95 "Hg10 mi
3:50 AM64 °FClear.8 mph73%29.95 "Hg10 mi
3:20 AM64 °FClear.8 mph73%29.95 "Hg10 mi
1:20 AM68 °FClear.8 mph69%29.95 "Hg10 mi
12:50 AM68 °FClear.8 mph69%29.98 "Hg10 mi
10:50 PM
Jul 23
72 °FSunny.7 mph61%29.98 "Hg10 mi
10:20 PM72 °FSunny.7 mph61%29.98 "Hg10 mi
9:50 PM73 °FSunny.8 mph57%29.98 "Hg10 mi
8:50 PM75 °FSunny.7 mph54%29.98 "Hg10 mi
8:20 PM77 °FPassing clouds.7 mph51%29.95 "HgN/A
7:50 PM77 °FPassing clouds.7 mph51%29.95 "HgN/A
7:20 PM77 °FPassing clouds.7 mph54%29.95 "HgN/A
6:50 PM79 °FPassing clouds.9 mph48%29.95 "HgN/A
6:20 PM79 °FSunny.9 mph48%29.95 "Hg10 mi
5:50 PM79 °FPassing clouds.8 mph51%29.98 "HgN/A
5:20 PM79 °FSunny.8 mph51%29.98 "Hg10 mi
4:50 PM77 °FPassing clouds.10 mph51%29.98 "HgN/A
4:20 PM81 °FPassing clouds.7 mph48%29.98 "HgN/A
3:50 PM81 °FPassing clouds.10 mph48%29.98 "HgN/A
3:20 PM79 °FPassing clouds.9 mph51%29.98 "HgN/A
2:50 PM79 °FSunny.7 mph54%30.01 "Hg10 mi
Weather by CustomWeather, © 2014

See weather overviewHow to use our weather pages